Overview Statistics Trail Chart Weather Telemetry Raw packets
 

This is the latest recevied weather packets stored in our database for station/object N7IGG. If no packets are shown the sender has not sent any weather packets the latest 10 day(s).

<< 47 48 49 50 51 52 53 >>
Time Temp. Humidity Pressure Rain* Wind** Luminosity Snow
1777849130 25° C 48% 1010.9 hPa 0 mm - 565 W/m² -
1777848825 25° C 49% 1010.8 hPa 0 mm - 558 W/m² -
1777848522 25° C 45% 1011 hPa 0 mm - 561 W/m² -
1777848219 24.44° C 45% 1011.1 hPa 0 mm - 581 W/m² -
1777847917 24.44° C 45% 1011.2 hPa 0 mm - 423 W/m² -
1777847614 23.33° C 50% 1011.2 hPa 0 mm - 346 W/m² -
1777847310 22.78° C 54% 1011.3 hPa 0 mm - 256 W/m² -
1777847009 21.67° C 58% 1011.3 hPa 0 mm - 458 W/m² -
1777846706 21.67° C 58% 1011.4 hPa 0 mm - 570 W/m² -
1777846405 21.67° C 59% 1011.5 hPa 0 mm - 636 W/m² -
1777846101 21.67° C 60% 1011.6 hPa 0 mm - 630 W/m² -
1777845798 21.67° C 60% 1011.6 hPa 0 mm - 661 W/m² -
1777845494 20.56° C 62% 1011.5 hPa 0 mm - 640 W/m² -
1777845192 21.67° C 60% 1011.6 hPa 0 mm - 656 W/m² -
1777844890 21.67° C 56% 1011.6 hPa 0 mm - 658 W/m² -
1777844586 21.67° C 55% 1011.7 hPa 0 mm - 657 W/m² -
1777844284 21.11° C 56% 1011.9 hPa 0 mm - 676 W/m² -
1777843981 20.56° C 58% 1011.8 hPa 0 mm - 647 W/m² -
1777843678 20.56° C 59% 1011.8 hPa 0 mm - 680 W/m² -
1777843376 21.67° C 54% 1011.9 hPa 0 mm - 680 W/m² -
1777843073 21.67° C 55% 1011.9 hPa 0 mm - 662 W/m² -
1777842769 20.56° C 60% 1011.8 hPa 0 mm - 697 W/m² -
1777842464 21.67° C 54% 1012 hPa 0 mm - 668 W/m² -
1777842163 22.22° C 54% 1012.1 hPa 0 mm - 664 W/m² -
1777841863 20.56° C 58% 1012.3 hPa 0 mm - 656 W/m² -

* Rain latest hour (hover to see other rain measurements)
** Current wind speed in m/s (hover to see current wind gust speed)